Find Starlink 34885

NORAD ID: 65328 Int'l Des: 2025-189 Owner: SPXS Country: US Constellation: starlink operational
LEOCIRCULAR

Live Position

Loading 3D Globe...

About Starlink 34885

Description loading...

Upcoming Passes

Passes for default location (London). Set your location on the main map for personalized predictions.

Altitude History

Loading altitude history...

Two-Line Element Set

1 65328U 25189F 26105.18368814 .00010012 00000-0 34963-3 0 9994
2 65328 53.1602 37.2690 0001055 99.5419 260.5701 15.30206284 36638
Epoch: Apr 15, 2026 • Age: 6 hours

Current Status

Altitude 494.1 km
Velocity 7.62 km/s
Sub-Earth Point -52.49°S, 38.41°W
Launch Date Aug 27, 2025
Age 0.6 years
Type internet

Technical Details

Classification Payload
Mass 575.00 kg
Dry Mass 530.00 kg
Total Mass 575.00 kg
Length 0.30 m
Diameter 4.10 m
Span 29.00 m
Shape Box + pan
Manufacturer SPXS
Bus Type Starlink V2MO
Phase Status In Orbit
Owner/State SPXS/US

Most Searched